• Currently

    Reported at Minneapolis, Minneapolis-St. Paul International Airport, MN
    3:53 AM CST SUN MAR 26 2017
  • 37°F3°C
  • Drizzle
    Drizzle
  • Feels Like:33°F0°CDew Point:34°F1°CHumidity:87% Winds:E 7 mph 11 kph
    Pressure:29.94 in1014 hPaVisibility:7.00 miles11263.00 meters
Time Weather Temp Dew Point
Humidity Winds Visibility Pressure Precipitation
1 hr 24 hr
Tuesday, March 14
23:53 23:53 Clear Clear 17°F-8°C 3°F-16°C 54% ENE 5 mphENE 7 kph 10.0 miles16.1 km 30.42 in1030 hPa 0.00 in0.00 mm --
22:53 22:53 Clear Clear 18°F-8°C 4°F-16°C 54% NE 5 mphNE 7 kph 10.0 miles16.1 km 30.42 in1030 hPa 0.00 in0.00 mm --
21:53 21:53 Clear Clear 19°F-7°C 5°F-15°C 54% NNE 8 mphNNE 13 kph 10.0 miles16.1 km 30.42 in1030 hPa 0.00 in0.00 mm --
20:53 20:53 Mostly Clear Mostly Clear 20°F-7°C 4°F-16°C 50% NNE 8 mphNNE 13 kph 10.0 miles16.1 km 30.39 in1029 hPa 0.00 in0.00 mm --
19:53 19:53 Mostly Cloudy Mostly Cloudy 22°F-6°C 4°F-16°C 46% NNE 10 mphNNE 17 kph 10.0 miles16.1 km 30.39 in1029 hPa 0.00 in0.00 mm --
18:53 18:53 Mostly Cloudy Mostly Cloudy 23°F-5°C 4°F-16°C 44% NNE 9 mphNNE 15 kph 10.0 miles16.1 km 30.39 in1029 hPa 0.00 in0.00 mm --
17:53 17:53 Mostly Cloudy Mostly Cloudy 26°F-3°C 4°F-16°C 38% NE 12 mphNE 19 kph 10.0 miles16.1 km 30.39 in1029 hPa 0.00 in0.00 mm --
16:53 16:53 Mostly Cloudy Mostly Cloudy 26°F-3°C 6°F-14°C 42% NNE 13 mphNNE 20 kph 10.0 miles16.1 km 30.39 in1029 hPa 0.00 in0.00 mm --
15:53 15:53 Mostly Cloudy Mostly Cloudy 26°F-3°C 6°F-14°C 42% NNE 16 mphNNE 26 kph 10.0 miles16.1 km 30.39 in1029 hPa 0.00 in0.00 mm --
14:53 14:53 Mostly Cloudy Mostly Cloudy 24°F-4°C 7°F-14°C 48% NE 13 mphNE 20 kph 10.0 miles16.1 km 30.39 in1029 hPa 0.00 in0.00 mm --
13:53 13:53 Partly Cloudy Partly Cloudy 24°F-4°C 9°F-13°C 52% N 12 mphN 19 kph 10.0 miles16.1 km 30.42 in1030 hPa 0.00 in0.00 mm --
12:53 12:53 Partly Cloudy Partly Cloudy 24°F-4°C 9°F-13°C 52% ENE 13 mphENE 20 kph 10.0 miles16.1 km 30.42 in1030 hPa 0.00 in0.00 mm --
11:53 11:53 Partly Cloudy Partly Cloudy 22°F-6°C 10°F-12°C 60% NE 14 mphNE 22 kph 10.0 miles16.1 km 30.42 in1030 hPa 0.00 in0.00 mm --
10:53 10:53 Mostly Cloudy Mostly Cloudy 19°F-7°C 9°F-13°C 65% NNE 12 mphNNE 19 kph 10.0 miles16.1 km 30.42 in1030 hPa 0.00 in0.00 mm --
09:53 09:53 Partly Cloudy Partly Cloudy 18°F-8°C 9°F-13°C 68% NE 12 mphNE 19 kph 10.0 miles16.1 km 30.42 in1030 hPa 0.00 in0.00 mm --
08:53 08:53 Mostly Cloudy Mostly Cloudy 15°F-9°C 8°F-13°C 74% NNE 13 mphNNE 20 kph 10.0 miles16.1 km 30.42 in1030 hPa 0.00 in0.00 mm --
07:53 07:53 Mostly Sunny Mostly Sunny 15°F-9°C 9°F-13°C 77% NNE 14 mphNNE 22 kph 10.0 miles16.1 km 30.42 in1030 hPa 0.00 in0.00 mm --
06:53 06:53 Cloudy Cloudy 16°F-9°C 10°F-12°C 77% NNE 10 mphNNE 17 kph 10.0 miles16.1 km 30.39 in1029 hPa 0.00 in0.03 mm --
05:53 05:53 Cloudy With Light Snow Cloudy With Light Snow 16°F-9°C 11°F-12°C 80% NNE 15 mphNNE 24 kph 4.0 miles6.4 km 30.39 in1029 hPa 0.00 in0.03 mm --
04:53 04:53 Cloudy With Light Snow Cloudy With Light Snow 17°F-8°C 11°F-12°C 77% NNE 14 mphNNE 22 kph 5.0 miles8.0 km 30.36 in1028 hPa 0.00 in0.03 mm --
03:53 03:53 Cloudy With Light Snow Cloudy With Light Snow 17°F-8°C 12°F-11°C 80% NNE 12 mphNNE 19 kph 5.0 miles8.0 km 30.36 in1028 hPa 0.00 in0.03 mm --
03:26 03:26 Cloudy With Light Snow Cloudy With Light Snow 17°F-8°C 12°F-11°C 80% NNE 14 mphNNE 22 kph 5.0 miles8.0 km 30.36 in1028 hPa 0.00 in0.03 mm --
03:15 03:15 Cloudy With Light Snow Cloudy With Light Snow 18°F-8°C 13°F-11°C 81% NNE 13 mphNNE 20 kph 3.0 miles4.8 km 30.36 in1028 hPa 0.00 in0.03 mm --
02:53 02:53 Cloudy With Light Snow Cloudy With Light Snow 18°F-8°C 13°F-11°C 81% NNE 13 mphNNE 20 kph 2.5 miles4.0 km 30.33 in1027 hPa 0.01 in6.45 mm --
02:35 02:35 Cloudy With Light Snow Cloudy With Light Snow 18°F-8°C 13°F-11°C 81% NNE 13 mphNNE 20 kph 2.5 miles4.0 km 30.33 in1027 hPa 0.01 in6.45 mm --
01:53 01:53 Cloudy With Light Snow Cloudy With Light Snow 19°F-7°C 14°F-10°C 81% NE 12 mphNE 19 kph 4.0 miles6.4 km 30.33 in1027 hPa 0.00 in0.03 mm --
00:53 00:53 Cloudy With Light Snow Cloudy With Light Snow 19°F-7°C 13°F-11°C 77% NE 13 mphNE 20 kph 10.0 miles16.1 km 30.33 in1027 hPa 0.00 in0.03 mm --